Location: Altoona
(40.5167°N, 78.4000°W)
Time: 08:19:55
(UTC-05:00)

Daily predictions for brighter satellites

Satellite Brightness Start Highest point End
(mag) Time Altitude Azimuth Time Altitude Azimuth Time Altitude Azimuth
MSX 4.1 17:11:32 10° S 17:17:18 81° WSW 17:23:06 10° NNW
CSL-04 Debris 4.2 17:16:00 10° SSE 17:21:18 59° ENE 17:26:37 10° N
BREEZE-M DEB (TANK) 2.7 17:25:46 10° SSW 17:27:44 32° SE 17:29:58 10° ENE
Cosmos 2346 Rocket 4.5 17:21:46 10° N 17:27:55 68° E 17:34:04 10° SSE
Cosmos 1833 Rocket 3.4 17:24:03 10° N 17:29:03 32° ENE 17:34:02 10° ESE
Tsikada Rocket 4.1 17:25:00 10° N 17:31:11 82° W 17:37:21 10° S
USA 161 3.8 17:33:39 10° NW 17:34:52 14° WNW 17:36:08 10° WSW
Meteor 1-14 Rocket 4.2 17:29:36 10° N 17:35:15 69° ENE 17:40:46 10° SSE
Cosmos 2297 4.3 17:30:33 10° S 17:35:42 36° ESE 17:40:54 10° NE
BREEZE M DEB (TANK) 4.4 17:34:45 10° WNW 17:37:18 19° SW 17:39:05 10° S
Cosmos 2221 Rocket 4.4 17:35:06 10° SSE 17:38:52 28° E 17:42:39 10° NNE
Cosmos 2278 Rocket 2.3 17:33:22 10° SSW 17:39:02 86° WNW 17:44:46 10° NNE
Cosmos 1703 Rocket 3.9 17:35:09 10° SSE 17:39:25 46° E 17:43:41 10° NNE
CORIOLIS 4.2 17:35:11 10° SSE 17:40:34 68° ENE 17:45:59 10° N
CZ-2C R/B 4.1 17:36:49 10° SSW 17:41:29 39° W 17:46:17 10° NNW
Cosmos 1763 Rocket 3.8 17:44:45 10° NNW 17:49:56 70° WSW 17:55:00 10° S
IRS-1A Rocket 4.3 17:44:23 10° SSE 17:50:08 66° ENE 17:55:48 10° N
Meteor 1-28 Rocket 3.1 17:50:06 10° NNE 17:53:50 87° ESE 17:57:32 10° SSW
Cosmos 44 Rocket 4.0 17:50:21 10° NNW 17:54:43 32° NE 17:58:41 12° ESE
CZ-2C R/B 3.6 17:50:52 10° NNE 17:55:23 78° ESE 17:59:56 10° S
Okean 2 Rocket 3.8 17:52:36 10° NNE 17:56:43 33° ENE 18:00:48 10° SE
Cosmos 1606 2.5 17:56:18 10° S 18:00:03 70° E 18:03:50 10° NNE
Cosmos 1441 Rocket 4.3 17:57:22 10° SSE 18:00:40 25° E 18:01:48 22° ENE
Cosmos 292 Rocket 4.3 17:58:00 10° N 18:02:20 34° ENE 18:06:39 10° SE
Cosmos 1464 Rocket 4.0 17:58:07 10° SSE 18:04:03 56° E 18:10:03 10° NNE
Cosmos 405 3.9 18:01:28 10° NNE 18:04:33 26° ENE 18:07:36 10° SE
Cosmos 1908 Rocket 3.8 18:00:44 10° NNW 18:05:04 72° W 18:09:22 10° S
Lacrosse 5 4.1 18:03:21 10° NW 18:05:34 13° N 18:07:48 10° NNE
Landsat 4 3.6 18:02:17 10° NNE 18:06:05 85° ESE 18:09:53 10° SSW
COSMOS 2455 4.2 18:01:33 10° WSW 18:07:00 35° NW 18:12:30 10° NNE
Cosmos 1484 Rocket 4.0 18:03:23 10° S 18:07:04 45° W 18:10:52 10° NNW
SKYMED 2 3.6 18:03:04 10° NNE 18:07:21 55° E 18:11:36 10° S
CZ-4 R/B 1.7 18:04:55 10° S 18:08:45 64° W 18:12:34 10° NNW
MTI 3.6 18:07:22 11° NNE 18:10:27 80° ESE 18:13:40 10° S
MOS 1 4.2 18:05:39 10° SSE 18:11:16 65° ENE 18:16:55 10° N
SL-27 R/B 2.8 18:08:03 10° NNW 18:11:21 62° WSW 18:14:41 10° S
EO 1 Del DPAF 3.2 18:08:15 12° NNE 18:11:46 58° ESE 18:15:31 10° S
Cosmos 540 Rocket 3.3 18:08:24 10° NNW 18:13:35 72° ENE 18:18:43 10° SSE
METEOR-M 4.0 18:08:56 10° SSE 18:14:15 77° ENE 18:19:36 10° N
MONITOR-E 4.1 18:12:29 10° SSE 18:15:28 57° ENE 18:18:29 10° N
CZ-4 R/B 4.4 18:11:23 10° SSE 18:15:32 88° WSW 18:19:43 10° NNW
USA 234 3.5 18:11:19 20° ENE 18:15:49 53° SE 18:22:09 10° SSW
Cosmos 968 Rocket 4.1 18:13:12 10° SSE 18:17:50 34° E 18:19:34 27° ENE
Cosmos 1503 Rocket 4.0 18:13:01 10° SSW 18:18:17 90° ESE 18:23:33 10° NNE
Cosmos 44 3.3 18:14:16 10° NNW 18:18:52 53° NE 18:22:42 16° SE
Cosmos 2082 Rocket 2.1 18:13:50 10° NNW 18:19:33 78° ENE 18:25:11 10° SSE
Ariane Rocket 4.5 18:15:09 10° SSW 18:19:54 39° W 18:24:39 10° NNW
Meteor 2-6 Rocket 4.0 18:16:52 10° S 18:22:17 79° E 18:27:53 10° NNE
ERS-2 2.3 18:22:37 10° S 18:26:17 73° WSW 18:29:58 10° NNW
BREEZE-M DEB (TANK) 3.4 18:25:31 10° NW 18:27:37 26° NNE 18:27:37 26° NNE
Okean 1-7 3.3 18:23:35 10° SSW 18:27:57 71° W 18:32:22 10° N
Cosmos 1602 3.6 18:24:25 10° N 18:28:14 61° E 18:32:02 10° SSE
ALOS 2.1 18:27:18 10° SSE 18:31:56 69° ENE 18:36:35 10° N
DMSP B5D1-3 4.5 18:28:50 13° NNE 18:33:30 63° ESE 18:38:35 10° S
Cosmos 1782 3.9 18:30:02 10° SSW 18:33:53 45° W 18:37:45 10° N
Cosmos 405 Rocket 2.5 18:31:08 10° S 18:34:55 88° E 18:36:32 33° N
FengYun 1-2 T 4.4 18:39:44 24° SE 18:42:41 46° ENE 18:47:59 10° N
CZ-4C R/B 2.9 18:47:05 10° NNW 18:54:14 65° NE 18:58:04 33° ESE
Meteor 1-27 Rocket 3.8 18:49:00 10° S 18:54:54 87° W 19:00:54 10° N
COSMO-SKYMED 1 3.8 18:51:17 10° N 18:55:22 42° WNW 18:59:27 10° SW
Meteor 1-5 Rocket 4.4 18:50:32 10° N 18:54:41 47° NE 18:54:41 47° NE
FENGYUN 3A 3.8 18:51:26 10° S 18:56:50 74° WSW 19:02:15 10° NNW
Cosmos 783 Rocket 4.4 18:56:00 10° NNW 19:01:21 87° WSW 19:05:35 16° SSE
SPOT 3 Rocket 4.3 18:57:52 10° S 19:02:57 53° W 19:08:03 10° NNW
USA 229 DEB 3.7 18:58:11 10° SSW 19:04:43 55° ESE 19:05:14 53° E
USA 229 3.7 18:58:18 10° SSW 19:04:49 54° ESE 19:05:17 53° ESE
Cosmos 1833 Rocket 4.1 19:07:52 10° NW 19:13:00 37° WSW 19:18:05 10° S
Cosmos 2369 Rocket 3.7 19:09:25 10° S 19:11:27 22° SSE 19:11:27 22° SSE
Nadezhda 4 Rocket 4.0 19:09:41 10° N 19:15:47 75° W 19:21:53 10° S
OAO 3 Rocket 4.4 19:17:57 10° WSW 19:21:32 35° SSW 19:21:32 35° SSW
Timation 2 Rocket 4.1 19:22:33 10° NNW 19:29:18 77° WSW 19:31:12 49° S
Cosmos 1092 Rocket 4.0 19:27:43 10° N 19:33:53 78° W 19:40:04 10° S
Thor Agena Rocket 4.3 19:36:31 48° SW 19:36:31 48° SW 19:40:22 10° SSW
USA 234 3.8 19:58:41 49° NNW 19:58:45 49° NNW 20:04:59 10° WSW
CZ-4C R/B 4.4 20:36:18 10° NW 20:42:36 30° WSW 20:43:23 30° WSW
